Temperature
14 14 14 14 14 14 13 13 13 13 12 12 12 12 12 12 12 11 11 11 11 11 11 11 11 11 10 10 10 10 10 10 10 10 9 9 9 9
14 14 14 14 14 14 13 13 13 13 13 12 12 12 12 12 11 11 11 11 11 11 10 10 10 10 10 10 10 10 10 9 9 9 9 9 9 9
14 14 14 14 14 13 13 13 13 13 13 12 12 12 11 11 11 11 11 11 10 10 10 10 10 10 10 10 9 9 9 9 9 9 9 9 9 8
14 14 14 14 14 13 13 13 13 13 12 12 12 12 11 11 11 11 11 10 10 10 10 10 10 10 9 9 9 9 9 9 9 9 8 8 8 8
14 14 14 14 13 13 13 13 13 12 12 12 12 12 11 11 11 11 10 10 10 10 10 10 9 9 9 9 9 9 8 8 8 8 8 8 8 8
14 14 13 13 13 13 13 13 12 12 12 12 12 11 11 11 11 11 10 10 10 10 10 9 9 9 9 9 9 8 8 8 8 8 8 8 7 7
13 13 13 13 13 13 13 13 12 12 12 12 11 11 11 11 11 10 10 10 10 10 10 9 9 9 9 9 8 8 8 8 8 7 7 7 7 7
13 13 13 13 13 13 12 12 12 12 12 12 11 11 11 11 11 10 10 10 10 9 9 9 9 9 9 8 8 8 8 8 7 7 7 7 6 6
13 13 13 13 13 12 12 12 12 12 11 11 11 11 11 11 10 10 10 10 10 9 9 9 9 9 8 8 8 8 8 7 7 7 7 6 6 6
13 13 13 13 12 12 12 12 12 12 11 11 11 11 11 10 10 10 10 9 9 9 9 9 9 8 8 8 8 8 7 7 7 7 6 6 6 6
12 12 12 12 12 12 12 12 12 11 11 11 11 11 10 10 10 10 9 9 9 9 9 8 8 8 8 8 8 7 7 7 7 6 6 6 5 5
12 12 12 12 12 11 11 11 11 11 11 11 11 10 10 10 10 10 9 9 9 9 8 8 8 8 7 8 7 7 7 6 6 6 6 5 5 5
12 12 12 12 11 11 11 11 11 11 11 10 10 10 10 10 10 9 9 9 9 8 8 8 8 7 7 7 7 7 6 6 6 6 5 5 5 4
11 11 11 11 11 11 11 10 10 10 10 10 10 10 10 10 9 9 9 8 8 8 8 7 7 7 7 6 6 6 6 6 5 5 5 5 4 4
11 11 11 11 11 10 10 10 10 10 10 9 10 9 9 9 9 9 8 8 8 8 7 7 7 7 6 6 6 6 6 5 5 5 5 4 4 4
11 11 11 11 10 10 10 10 10 9 9 9 9 9 9 9 9 8 8 8 8 8 7 7 7 6 6 6 6 5 5 5 5 4 4 4 4 3
10 10 10 10 10 10 10 10 9 9 9 9 8 8 8 8 8 8 8 7 7 7 7 7 6 6 6 5 5 5 5 5 4 4 4 4 4 3
10 10 10 10 10 9 9 9 9 9 8 8 8 8 8 8 8 7 7 7 7 7 6 6 6 5 5 5 5 5 4 4 4 4 3 3 3 3
10 10 10 10 9 9 9 9 8 8 8 8 8 8 7 7 7 7 7 7 6 6 6 6 5 5 4 4 4 4 4 4 4 3 3 3 3 3
9 9 9 9 9 9 9 8 8 8 8 8 7 7 7 7 7 6 6 6 6 6 5 5 5 4 4 4 4 4 4 3 3 3 3 2 2 2
9 9 9 9 9 8 8 8 8 8 7 7 7 7 7 6 6 6 6 6 5 5 5 5 4 4 4 3 3 3 3 3 3 3 2 2 2 2
9 8 8 8 8 8 8 8 7 7 7 7 7 7 6 6 6 6 5 5 5 5 4 4 4 4 3 3 3 3 3 2 2 2 2 2 1 1
8 8 8 8 8 7 7 7 7 7 7 6 6 6 6 6 5 5 5 5 4 4 4 4 3 3 3 3 2 2 2 2 2 2 2 1 1 1
Wind_Speed
2 2 1 1 2 2 3 4 4 2 1 2 1 2 2 2 3 4 4 5 6 7 7 7 8 8 9 10 10 10 11 11 11 11 11 11 10 10
1 2 1 1 2 2 3 2 3 4 2 1 1 1 2 2 3 4 4 5 5 6 6 6 7 7 8 8 8 9 9 9 9 9 10 10 10 10
1 2 1 1 2 2 2 2 2 3 3 1 1 1 2 2 3 4 4 4 4 5 5 5 6 6 6 7 7 7 7 7 7 8 8 8 9 9
1 2 1 2 2 2 2 2 2 2 3 2 0 1 1 1 2 3 3 3 3 3 3 4 4 5 5 5 5 5 6 6 6 6 6 6 7 8
2 2 2 3 2 2 2 2 2 2 2 3 1 0 1 1 2 2 3 3 2 2 2 2 2 3 3 3 3 3 4 4 5 5 5 6 6 7
2 2 3 4 4 4 3 3 3 3 3 3 1 0 0 0 1 1 1 1 1 2 2 2 1 1 1 1 1 2 2 2 3 4 4 5 5 5
1 1 2 4 4 4 3 3 4 3 3 2 1 0 1 1 2 2 2 0 1 1 1 2 2 2 2 2 1 1 1 1 2 3 4 4 4 4
2 1 1 2 3 4 5 6 6 5 4 3 2 2 3 3 2 3 2 1 1 1 1 1 1 1 3 3 3 2 1 1 1 2 2 3 3 4
2 2 1 2 3 2 3 4 4 5 6 5 4 5 4 5 4 3 3 3 3 1 1 1 1 2 3 3 3 3 2 2 2 1 2 2 3 3
2 3 3 2 2 3 3 2 1 2 4 4 5 5 5 5 6 5 5 3 1 0 2 1 1 2 2 4 4 3 3 3 3 2 2 2 2 3
2 2 3 3 4 5 4 3 2 2 3 4 5 4 4 5 6 4 3 2 2 2 2 2 1 1 1 2 4 3 3 3 3 3 3 2 2 3
1 2 4 4 5 5 4 4 3 4 2 1 1 2 2 3 6 5 5 4 2 2 2 3 2 1 1 1 3 3 2 3 3 3 3 2 2 2
2 2 3 5 5 6 6 4 6 4 2 2 1 1 0 0 1 3 4 4 4 4 3 4 2 2 2 2 2 2 2 3 3 3 3 3 3 2
4 3 3 5 5 5 5 5 5 3 1 2 1 2 2 2 2 2 4 4 4 5 4 5 3 3 2 1 2 2 2 3 2 2 3 3 3 4
4 5 4 5 4 3 5 5 3 2 1 2 3 3 3 3 1 1 0 1 2 2 4 4 3 3 3 3 3 2 2 2 2 2 2 2 3 3
3 3 3 2 2 2 2 2 2 2 3 3 3 3 1 1 1 1 1 1 1 2 2 3 5 4 4 4 4 4 3 2 2 3 3 3 4 4
3 1 1 1 1 1 1 1 1 2 2 2 2 2 2 1 2 1 1 1 2 2 2 1 1 2 3 3 3 4 4 3 3 2 2 3 4 4
4 3 3 3 4 4 3 3 3 3 3 3 3 3 3 3 2 1 1 2 3 3 3 1 1 1 1 2 3 4 3 3 3 2 2 3 4 4
3 4 4 5 4 4 4 4 4 4 3 3 3 3 3 3 2 2 2 2 3 3 3 2 1 2 2 4 2 3 3 2 2 2 2 3 4 4
3 5 5 5 4 5 5 4 4 3 3 3 3 3 3 3 3 3 3 4 4 3 3 2 2 3 5 4 3 2 4 3 3 3 3 3 3 4
4 5 5 4 4 5 5 4 4 4 4 3 4 4 4 4 4 4 4 5 4 3 4 4 5 4 2 0 1 2 2 4 3 2 2 2 2 2
5 5 5 5 5 4 4 4 4 4 4 4 4 4 4 4 5 5 4 4 4 4 5 4 2 1 1 3 4 4 2 2 3 3 3 3 2 2
6 5 5 5 5 4 4 5 6 5 5 5 5 4 4 4 4 4 5 5 4 4 3 2 1 1 2 3 3 3 3 3 2 2 3 5 6 7
Wind_Direction
171 162 171 193 178 172 159 155 151 159 270 299 325 331 5 74 78 87 83 74 71 67 64 60 58 56 55 54 52 50 50 50 50 46 41 39 37 34
154 139 152 169 152 149 154 152 152 158 181 240 258 307 20 69 80 94 92 80 68 65 65 64 64 63 61 59 55 51 49 48 47 44 40 37 33 29
139 143 156 140 128 132 133 133 137 139 162 235 309 356 46 49 52 69 80 76 68 67 67 71 70 65 61 59 54 50 46 43 42 38 35 32 28 25
180 147 167 139 129 131 132 139 147 147 156 178 301 14 29 39 54 58 52 63 63 61 71 74 73 69 62 59 55 51 49 46 38 31 28 24 22 21
181 175 183 152 153 149 143 143 141 128 127 152 174 67 30 41 62 54 48 31 44 43 62 67 76 76 63 56 55 52 49 43 32 27 21 14 14 16
177 186 185 176 178 170 163 159 141 125 121 129 139 112 95 114 111 127 44 31 23 24 38 45 48 50 24 29 40 35 32 30 23 18 13 7 11 12
174 188 188 180 179 171 166 166 152 144 141 141 160 153 213 182 199 198 187 201 357 10 16 7 9 353 321 300 290 303 341 0 4 1 3 4 3 0
180 194 188 180 173 173 171 166 162 162 173 174 188 202 225 216 198 185 173 155 278 309 157 313 5 287 298 282 272 251 258 289 312 333 350 353 353 358
193 192 192 168 164 160 163 164 175 184 181 180 190 213 215 210 183 182 186 188 213 227 166 268 285 272 288 283 271 251 250 258 272 293 320 339 347 350
204 195 188 204 173 158 150 149 203 222 205 197 205 218 212 195 186 190 190 183 217 208 153 224 257 262 298 294 277 258 255 260 263 269 286 300 319 336
221 201 194 205 195 168 154 173 234 269 243 220 222 223 216 195 170 140 144 152 239 245 183 192 228 259 291 302 300 290 264 262 257 260 274 287 304 319
225 220 204 203 198 180 177 182 216 254 252 248 251 251 234 203 185 179 184 188 202 235 204 185 198 186 284 282 308 310 304 283 267 259 261 270 299 330
207 230 232 215 209 201 193 199 217 220 209 198 214 262 20 170 205 204 200 194 201 224 196 174 184 185 205 268 290 295 294 300 284 269 262 262 274 283
211 223 222 212 213 211 206 210 213 206 185 177 198 237 240 245 241 221 217 217 221 222 196 173 181 188 189 229 263 274 293 290 275 275 280 280 285 282
216 212 209 206 206 209 214 205 196 194 183 203 230 245 242 237 220 210 221 213 245 250 212 203 197 195 197 218 235 244 262 274 271 273 280 277 276 286
217 206 192 184 194 207 202 204 201 198 199 222 242 252 251 221 215 218 231 227 254 286 282 234 214 200 221 237 229 242 241 240 262 274 278 289 295 287
176 155 147 172 203 228 230 225 217 207 221 232 235 245 241 234 250 240 220 197 223 262 284 305 271 228 229 219 233 242 248 257 257 267 270 286 289 287
154 182 205 212 220 226 225 230 224 218 223 227 228 230 235 238 248 245 208 213 232 247 254 250 153 73 359 310 229 235 247 260 268 266 248 262 283 291
176 206 217 220 223 222 223 226 232 230 219 216 224 231 236 240 243 242 233 234 243 250 253 234 204 200 248 280 275 218 233 252 254 266 260 260 272 286
210 215 224 227 226 224 222 224 229 228 221 222 225 228 230 233 239 243 241 242 245 255 262 247 229 227 235 250 259 267 234 222 230 255 282 289 288 299
223 226 227 227 230 229 224 220 218 221 225 225 229 231 227 225 236 243 244 247 245 249 253 258 256 245 228 132 284 295 268 236 229 242 263 284 296 307
223 224 227 227 226 226 224 218 218 221 224 229 233 236 233 226 232 238 242 245 246 247 255 264 269 192 192 222 245 262 282 298 289 270 247 238 234 247
223 224 225 225 224 221 221 218 217 222 223 225 227 230 229 234 238 237 237 239 244 248 256 260 253 230 231 230 238 255 268 280 289 299 296 286 265 265
Height
1554 1555 1555 1554 1555 1555 1555 1556 1557 1556 1556 1556 1556 1556 1556 1555 1555 1554 1553 1552 1552 1551 1550 1549 1548 1547 1546 1544 1543 1542 1541 1540 1539 1538 1537 1537 1536 1535
1553 1553 1553 1553 1554 1554 1554 1555 1555 1555 1555 1555 1555 1555 1555 1555 1554 1554 1553 1552 1551 1550 1550 1549 1548 1547 1545 1544 1543 1542 1541 1540 1539 1538 1537 1536 1535 1534
1552 1552 1552 1552 1552 1552 1553 1553 1553 1554 1553 1554 1554 1554 1554 1554 1553 1553 1552 1551 1551 1550 1549 1548 1547 1546 1545 1544 1543 1542 1541 1540 1538 1537 1536 1535 1534 1533
1550 1550 1550 1550 1550 1551 1551 1551 1552 1552 1552 1552 1552 1552 1552 1552 1552 1552 1551 1551 1550 1549 1548 1547 1546 1545 1544 1543 1542 1541 1540 1539 1538 1536 1535 1534 1533 1531
1549 1549 1549 1549 1549 1549 1549 1550 1550 1550 1550 1550 1550 1550 1550 1550 1550 1550 1550 1549 1549 1548 1547 1546 1545 1544 1543 1542 1541 1540 1539 1538 1536 1535 1534 1533 1531 1530
1547 1547 1547 1547 1547 1548 1548 1548 1548 1548 1548 1548 1548 1548 1548 1548 1548 1548 1548 1547 1547 1546 1545 1545 1544 1543 1542 1541 1540 1539 1538 1536 1535 1534 1532 1531 1530 1528
1546 1546 1546 1546 1546 1546 1546 1546 1546 1546 1546 1546 1546 1546 1546 1546 1546 1546 1546 1545 1545 1544 1544 1543 1542 1541 1540 1539 1538 1537 1536 1535 1533 1532 1530 1529 1527 1526
1544 1544 1544 1544 1544 1544 1544 1543 1544 1544 1543 1543 1543 1543 1543 1543 1543 1543 1543 1543 1542 1542 1541 1541 1540 1539 1538 1537 1536 1535 1534 1533 1531 1530 1528 1527 1525 1524
1541 1541 1541 1541 1541 1541 1541 1541 1541 1541 1541 1541 1541 1540 1540 1541 1541 1540 1540 1540 1539 1540 1539 1537 1537 1536 1536 1534 1534 1533 1531 1530 1529 1527 1526 1525 1523 1522
1538 1538 1538 1538 1538 1538 1538 1538 1538 1538 1538 1537 1538 1537 1538 1538 1538 1538 1537 1537 1537 1537 1536 1535 1534 1533 1533 1532 1531 1530 1529 1528 1526 1525 1524 1522 1521 1519
1535 1535 1535 1535 1535 1535 1535 1535 1534 1534 1535 1534 1534 1534 1535 1535 1535 1535 1534 1534 1533 1533 1533 1532 1530 1530 1529 1529 1528 1527 1526 1525 1524 1522 1521 1520 1518 1517
1532 1532 1532 1532 1532 1532 1532 1531 1531 1531 1531 1531 1531 1531 1531 1531 1531 1531 1531 1530 1529 1529 1528 1528 1527 1526 1525 1525 1524 1524 1523 1521 1520 1519 1518 1517 1515 1514
1528 1528 1529 1529 1529 1529 1528 1528 1527 1528 1527 1527 1527 1527 1527 1527 1527 1527 1527 1527 1526 1525 1525 1524 1523 1522 1522 1520 1520 1520 1519 1518 1517 1516 1515 1513 1512 1511
1525 1525 1525 1526 1526 1525 1525 1524 1524 1524 1524 1523 1523 1523 1523 1523 1523 1523 1523 1522 1522 1521 1521 1520 1519 1519 1518 1516 1515 1515 1515 1514 1513 1511 1511 1510 1509 1507
1521 1521 1522 1522 1522 1522 1521 1521 1521 1520 1520 1519 1519 1519 1519 1519 1519 1519 1518 1518 1517 1517 1516 1515 1515 1514 1514 1512 1511 1510 1510 1509 1509 1507 1506 1505 1504 1503
1517 1517 1518 1518 1518 1518 1517 1517 1517 1517 1516 1516 1516 1516 1516 1515 1515 1514 1514 1513 1512 1512 1512 1511 1510 1510 1508 1508 1507 1505 1505 1504 1503 1503 1502 1501 1500 1499
1513 1513 1513 1513 1513 1513 1513 1513 1513 1513 1512 1512 1512 1512 1511 1511 1511 1510 1509 1509 1508 1507 1507 1507 1506 1505 1504 1503 1502 1501 1501 1500 1499 1498 1497 1496 1495 1494
1509 1508 1508 1509 1509 1509 1509 1509 1509 1508 1508 1508 1508 1508 1507 1507 1507 1506 1505 1504 1503 1503 1503 1502 1501 1500 1500 1498 1499 1497 1496 1495 1494 1494 1493 1491 1490 1490
1504 1504 1504 1504 1504 1505 1505 1505 1505 1505 1505 1504 1504 1504 1504 1503 1503 1502 1501 1500 1499 1499 1498 1498 1497 1495 1494 1493 1493 1494 1492 1491 1490 1489 1489 1487 1486 1485
1499 1499 1499 1500 1500 1500 1500 1500 1500 1500 1500 1500 1499 1499 1499 1498 1498 1497 1497 1496 1495 1494 1494 1493 1493 1492 1491 1490 1489 1488 1489 1487 1486 1485 1484 1484 1483 1482
1494 1495 1495 1495 1495 1495 1495 1495 1495 1495 1495 1495 1495 1494 1494 1494 1493 1493 1492 1492 1491 1490 1489 1488 1488 1489 1488 1487 1485 1483 1484 1484 1483 1482 1481 1479 1478 1477
1490 1490 1490 1490 1491 1491 1491 1490 1490 1490 1490 1490 1490 1489 1489 1489 1488 1488 1487 1487 1486 1485 1485 1485 1484 1484 1483 1482 1480 1480 1479 1479 1479 1479 1478 1477 1475 1472
1484 1484 1484 1485 1485 1485 1485 1485 1485 1484 1484 1484 1484 1484 1484 1483 1483 1483 1482 1482 1481 1480 1480 1480 1479 1479 1478 1478 1477 1476 1475 1475 1474 1473 1473 1473 1472 1471